This is the latest recevied weather packets stored in our database for station/object KD4UFD. If no packets are shown the sender has not sent any weather packets the latest 10 day(s).
| Time | Temp. | Humidity | Pressure | Rain* | Wind** | Luminosity | Snow |
|---|---|---|---|---|---|---|---|
| 1778102275 | 20° C | 95% | 1011 hPa | 0 mm | - | 58 W/m² | - |
| 1778101972 | 20° C | 95% | 1011.3 hPa | 0 mm | - | 43 W/m² | - |
| 1778101669 | 20° C | 95% | 1010.9 hPa | 0 mm | - | 69 W/m² | - |
| 1778101365 | 20° C | 95% | 1011 hPa | 0 mm | - | 30 W/m² | - |
| 1778101062 | 20° C | 95% | 1010.8 hPa | 0 mm | - | 54 W/m² | - |
| 1778100758 | 20° C | 94% | 1010.6 hPa | 1.78 mm | - | 123 W/m² | - |
| 1778100455 | 20° C | 94% | 1010.7 hPa | 3.05 mm | - | 191 W/m² | - |
| 1778100153 | 20° C | 93% | 1010.9 hPa | 1.27 mm | - | 126 W/m² | - |
| 1778099851 | 20° C | 93% | 1010.4 hPa | 0 mm | - | 100 W/m² | - |
| 1778099547 | 20° C | 93% | 1010.3 hPa | 0 mm | - | 110 W/m² | - |
| 1778099245 | 20.56° C | 92% | 1010.9 hPa | 0 mm | - | 137 W/m² | - |
| 1778098941 | 20.56° C | 92% | 1011.2 hPa | 0 mm | - | 116 W/m² | - |
| 1778098632 | 20.56° C | 92% | 1011.1 hPa | 0 mm | - | 150 W/m² | - |
| 1778098329 | 20.56° C | 91% | 1011.4 hPa | 0 mm | - | 174 W/m² | - |
| 1778098026 | 20.56° C | 91% | 1011.6 hPa | 0 mm | - | 153 W/m² | - |
| 1778097723 | 20.56° C | 91% | 1011.8 hPa | 0 mm | - | 99 W/m² | - |
| 1778097419 | 20.56° C | 91% | 1011.9 hPa | 0 mm | - | 130 W/m² | - |
| 1778097116 | 20.56° C | 90% | 1011.9 hPa | 0 mm | - | 117 W/m² | - |
| 1778096813 | 20.56° C | 90% | 1011.9 hPa | 0 mm | - | 127 W/m² | - |
| 1778096509 | 20.56° C | 90% | 1012 hPa | 0 mm | - | 138 W/m² | - |
| 1778096207 | 20.56° C | 90% | 1012.5 hPa | 0 mm | - | 142 W/m² | - |
| 1778095904 | 20.56° C | 90% | 1012.1 hPa | 0 mm | - | 71 W/m² | - |
| 1778095600 | 20.56° C | 89% | 1012.3 hPa | 0 mm | - | 62 W/m² | - |
| 1778095297 | 21.11° C | 89% | 1012.4 hPa | 0 mm | - | 57 W/m² | - |
| 1778094994 | 21.11° C | 89% | 1011.9 hPa | 0 mm | - | 225 W/m² | - |
* Rain latest hour (hover to see other rain measurements)
** Current wind speed in m/s (hover to see current wind gust speed)